Truth — WYV5559 — position and weather

sailwx.info

Track history (hours):
 
Tides and Currents Weather Stations Pressure Air Temp Water Temp Dewpoint Dewpoint Depression Visibility Wind Speed Wind Dir Waves Ship Positions

Truth

Owner: TRUTH AQUATIES INC, SANTA BARBARA, CA. More information available from US FCC via Universal Licensing System and Coast Guard Vessel Documentation Center.

Last reported at 2018-Feb-22 14:19 UTC. Time now 2018-Feb-22 15:11 UTC.
Position N 34°24' W 119°42'.

Length 22 m.

Type: Diving. MMSI: 367384840.

Date/timePositionNaut miles runAvg speedWind from/ knotsBaromVisibWave heightAir tempDewpointWater temp
2018-Feb-22 14:19N 34°24' W 119°42'0 0.0
2018-Feb-22 07:58N 34°24' W 119°42'0 0.0
2018-Feb-21 09:40N 34°24' W 119°42'0 0.0
2018-Feb-21 07:53N 34°24' W 119°42'0 0.0
2018-Feb-21 03:29N 34°24' W 119°42'0 0.0
2018-Feb-20 21:53N 34°24' W 119°42'0 0.0
2018-Feb-20 10:44N 34°24' W 119°42'0 0.0
2018-Feb-20 05:05N 34°24' W 119°42'0 0.0
2018-Feb-19 21:17N 34°24' W 119°42'0 0.0
2018-Feb-19 18:35N 34°24' W 119°42'0 0.0
2018-Feb-19 18:05N 34°24' W 119°42'0 0.0
2018-Feb-19 17:56N 34°24' W 119°42'0 0.0
2018-Feb-19 17:29N 34°24' W 119°42'0 0.0
2018-Feb-19 15:56N 34°24' W 119°42'0 0.0
2018-Feb-19 15:17N 34°24' W 119°42'0 0.0
2018-Feb-19 11:17N 34°24' W 119°42'0 0.0
2018-Feb-19 00:02N 34°24' W 119°42'0 0.0
2018-Feb-18 19:38N 34°24' W 119°42'0 0.0
2018-Feb-18 19:17N 34°24' W 119°42'0 0.0
2018-Feb-18 17:11N 34°24' W 119°42'0 0.0
2018-Feb-18 12:38N 34°24' W 119°42'0 0.0
2018-Feb-18 12:14N 34°24' W 119°42'0 0.0
2018-Feb-18 11:50N 34°24' W 119°42'0 0.0
2018-Feb-18 11:29N 34°24' W 119°42'0 0.0
2018-Feb-18 10:14N 34°24' W 119°41'0 0.0
2018-Feb-18 08:14N 34°24' W 119°42'0 0.0
2018-Feb-18 07:59N 34°24' W 119°42'0 0.0
2018-Feb-18 06:32N 34°24' W 119°42'0 0.0
2018-Feb-18 04:38N 34°24' W 119°42'0 0.0
2018-Feb-18 04:29N 34°24' W 119°42'0 0.0
2018-Feb-18 03:47N 34°24' W 119°42'0 0.0
2018-Feb-18 01:56N 34°24' W 119°42'0 0.9
2018-Feb-18 01:26N 34°24' W 119°41'4 9.9
2018-Feb-18 01:00N 34°22' W 119°45'6 9.9
2018-Feb-18 00:26N 34°20' W 119°52'4 9.7
2018-Feb-18 00:00N 34°18' W 119°56'6 9.8
2018-Feb-17 23:25N 34°15' W 120°02'4 9.7
2018-Feb-17 22:59N 34°13' W 120°07'5 9.9
2018-Feb-17 22:29N 34°11' W 120°12'8 9.9
2018-Feb-17 21:42N 34°07' W 120°20'2 9.9
2018-Feb-17 21:30N 34°06' W 120°22'4 2.7
2018-Feb-17 20:06N 34°04' W 120°26'0 0.0
2018-Feb-17 19:57N 34°04' W 120°26'1 1.2
2018-Feb-17 19:25N 34°03' W 120°26'0 0.1
2018-Feb-17 18:54N 34°03' W 120°26'0 0.0
2018-Feb-17 18:24N 34°03' W 120°26'0 0.0
2018-Feb-17 18:00N 34°03' W 120°26'0 0.3
2018-Feb-17 16:34N 34°04' W 120°25'0 0.0
2018-Feb-17 16:05N 34°04' W 120°25'0 0.0
2018-Feb-17 15:41N 34°04' W 120°25'1 4.3
2018-Feb-17 15:29N 34°04' W 120°24'5 9.6
2018-Feb-17 15:00N 34°05' W 120°19'5 9.8
2018-Feb-17 14:26N 34°07' W 120°12'5 9.7
2018-Feb-17 13:56N 34°09' W 120°07'5 9.6
2018-Feb-17 13:26N 34°11' W 120°02'6 9.8
2018-Feb-17 12:51N 34°15' W 119°57'3 9.9
2018-Feb-17 12:30N 34°17' W 119°53'510.1
2018-Feb-17 12:00N 34°19' W 119°48'610.0
2018-Feb-17 11:27N 34°23' W 119°43'2 3.9
2018-Feb-17 10:54N 34°24' W 119°42'0 0.0
2018-Feb-17 08:27N 34°24' W 119°42'0 0.0
2018-Feb-16 21:57N 34°24' W 119°42'0 0.0
2018-Feb-16 12:06N 34°24' W 119°42'0 0.0
2018-Feb-16 11:51N 34°24' W 119°42'0 0.0
2018-Feb-16 11:12N 34°24' W 119°42'0 0.0
2018-Feb-16 10:48N 34°24' W 119°42'0 0.0
2018-Feb-16 07:12N 34°24' W 119°42'0 0.0
2018-Feb-16 06:45N 34°24' W 119°42'0 0.0
2018-Feb-16 00:36N 34°24' W 119°42'0 0.0
2018-Feb-16 00:06N 34°24' W 119°42'0 0.0
2018-Feb-15 22:03N 34°24' W 119°42'0 0.0
2018-Feb-15 21:45N 34°24' W 119°42'0 0.0
2018-Feb-15 21:24N 34°24' W 119°42'0 0.0
2018-Feb-15 13:27N 34°24' W 119°42'0 0.0
2018-Feb-15 12:09N 34°24' W 119°42'0 0.0
2018-Feb-15 11:51N 34°24' W 119°42'0 0.0
2018-Feb-15 00:54N 34°24' W 119°42'0 0.0
2018-Feb-14 19:39N 34°24' W 119°42'0 0.2
2018-Feb-14 18:26N 34°24' W 119°42'0 0.0
2018-Feb-14 12:10N 34°24' W 119°42'0 0.0
2018-Feb-14 05:47N 34°24' W 119°42'0 0.0
2018-Feb-14 03:38N 34°24' W 119°42'0 0.0
2018-Feb-13 06:17N 34°24' W 119°42'0 0.0
2018-Feb-13 05:20N 34°24' W 119°42'0 0.0
2018-Feb-13 03:56N 34°24' W 119°42'0 0.0
2018-Feb-13 03:29N 34°24' W 119°42'  
Track history (hours):
 
Tides and Currents Weather Stations Pressure Air Temp Water Temp Dewpoint Dewpoint Depression Visibility Wind Speed Wind Dir Waves Ship Positions

Truth

Owner: TRUTH AQUATIES INC, SANTA BARBARA, CA. More information available from US FCC via Universal Licensing System and Coast Guard Vessel Documentation Center.

Last reported at 2018-Feb-22 14:19 UTC. Time now 2018-Feb-22 15:11 UTC.
Position N 34°24' W 119°42'.

Length 22 m.

Type: Diving. MMSI: 367384840.

Date/timePositionNaut miles runAvg speedWind from/ knotsBaromVisibWave heightAir tempDewpointWater temp
2018-Feb-22 14:19N 34°24' W 119°42'0 0.0
2018-Feb-22 07:58N 34°24' W 119°42'0 0.0
2018-Feb-21 09:40N 34°24' W 119°42'0 0.0
2018-Feb-21 07:53N 34°24' W 119°42'0 0.0
2018-Feb-21 03:29N 34°24' W 119°42'0 0.0
2018-Feb-20 21:53N 34°24' W 119°42'0 0.0
2018-Feb-20 10:44N 34°24' W 119°42'0 0.0
2018-Feb-20 05:05N 34°24' W 119°42'0 0.0
2018-Feb-19 21:17N 34°24' W 119°42'0 0.0
2018-Feb-19 18:35N 34°24' W 119°42'0 0.0
2018-Feb-19 18:05N 34°24' W 119°42'0 0.0
2018-Feb-19 17:56N 34°24' W 119°42'0 0.0
2018-Feb-19 17:29N 34°24' W 119°42'0 0.0
2018-Feb-19 15:56N 34°24' W 119°42'0 0.0
2018-Feb-19 15:17N 34°24' W 119°42'0 0.0
2018-Feb-19 11:17N 34°24' W 119°42'0 0.0
2018-Feb-19 00:02N 34°24' W 119°42'0 0.0
2018-Feb-18 19:38N 34°24' W 119°42'0 0.0
2018-Feb-18 19:17N 34°24' W 119°42'0 0.0
2018-Feb-18 17:11N 34°24' W 119°42'0 0.0
2018-Feb-18 12:38N 34°24' W 119°42'0 0.0
2018-Feb-18 12:14N 34°24' W 119°42'0 0.0
2018-Feb-18 11:50N 34°24' W 119°42'0 0.0
2018-Feb-18 11:29N 34°24' W 119°42'0 0.0
2018-Feb-18 10:14N 34°24' W 119°41'0 0.0
2018-Feb-18 08:14N 34°24' W 119°42'0 0.0
2018-Feb-18 07:59N 34°24' W 119°42'0 0.0
2018-Feb-18 06:32N 34°24' W 119°42'0 0.0
2018-Feb-18 04:38N 34°24' W 119°42'0 0.0
2018-Feb-18 04:29N 34°24' W 119°42'0 0.0
2018-Feb-18 03:47N 34°24' W 119°42'0 0.0
2018-Feb-18 01:56N 34°24' W 119°42'0 0.9
2018-Feb-18 01:26N 34°24' W 119°41'4 9.9
2018-Feb-18 01:00N 34°22' W 119°45'6 9.9
2018-Feb-18 00:26N 34°20' W 119°52'4 9.7
2018-Feb-18 00:00N 34°18' W 119°56'6 9.8
2018-Feb-17 23:25N 34°15' W 120°02'4 9.7
2018-Feb-17 22:59N 34°13' W 120°07'5 9.9
2018-Feb-17 22:29N 34°11' W 120°12'8 9.9
2018-Feb-17 21:42N 34°07' W 120°20'2 9.9
2018-Feb-17 21:30N 34°06' W 120°22'4 2.7
2018-Feb-17 20:06N 34°04' W 120°26'0 0.0
2018-Feb-17 19:57N 34°04' W 120°26'1 1.2
2018-Feb-17 19:25N 34°03' W 120°26'0 0.1
2018-Feb-17 18:54N 34°03' W 120°26'0 0.0
2018-Feb-17 18:24N 34°03' W 120°26'0 0.0
2018-Feb-17 18:00N 34°03' W 120°26'0 0.3
2018-Feb-17 16:34N 34°04' W 120°25'0 0.0
2018-Feb-17 16:05N 34°04' W 120°25'0 0.0
2018-Feb-17 15:41N 34°04' W 120°25'1 4.3
2018-Feb-17 15:29N 34°04' W 120°24'5 9.6
2018-Feb-17 15:00N 34°05' W 120°19'5 9.8
2018-Feb-17 14:26N 34°07' W 120°12'5 9.7
2018-Feb-17 13:56N 34°09' W 120°07'5 9.6
2018-Feb-17 13:26N 34°11' W 120°02'6 9.8
2018-Feb-17 12:51N 34°15' W 119°57'3 9.9
2018-Feb-17 12:30N 34°17' W 119°53'510.1
2018-Feb-17 12:00N 34°19' W 119°48'610.0
2018-Feb-17 11:27N 34°23' W 119°43'2 3.9
2018-Feb-17 10:54N 34°24' W 119°42'0 0.0
2018-Feb-17 08:27N 34°24' W 119°42'0 0.0
2018-Feb-16 21:57N 34°24' W 119°42'0 0.0
2018-Feb-16 12:06N 34°24' W 119°42'0 0.0
2018-Feb-16 11:51N 34°24' W 119°42'0 0.0
2018-Feb-16 11:12N 34°24' W 119°42'0 0.0
2018-Feb-16 10:48N 34°24' W 119°42'0 0.0
2018-Feb-16 07:12N 34°24' W 119°42'0 0.0
2018-Feb-16 06:45N 34°24' W 119°42'0 0.0
2018-Feb-16 00:36N 34°24' W 119°42'0 0.0
2018-Feb-16 00:06N 34°24' W 119°42'0 0.0
2018-Feb-15 22:03N 34°24' W 119°42'0 0.0
2018-Feb-15 21:45N 34°24' W 119°42'0 0.0
2018-Feb-15 21:24N 34°24' W 119°42'0 0.0
2018-Feb-15 13:27N 34°24' W 119°42'0 0.0
2018-Feb-15 12:09N 34°24' W 119°42'0 0.0
2018-Feb-15 11:51N 34°24' W 119°42'0 0.0
2018-Feb-15 00:54N 34°24' W 119°42'0 0.0
2018-Feb-14 19:39N 34°24' W 119°42'0 0.2
2018-Feb-14 18:26N 34°24' W 119°42'0 0.0
2018-Feb-14 12:10N 34°24' W 119°42'0 0.0
2018-Feb-14 05:47N 34°24' W 119°42'0 0.0
2018-Feb-14 03:38N 34°24' W 119°42'0 0.0
2018-Feb-13 06:17N 34°24' W 119°42'0 0.0
2018-Feb-13 05:20N 34°24' W 119°42'0 0.0
2018-Feb-13 03:56N 34°24' W 119°42'0 0.0
2018-Feb-13 03:29N 34°24' W 119°42'  

Dump ship's entire track history